[[{"header":{"parameterUnit":"m.s-1","parameterCategory":1,"la1":30.2991,"la2":30.254,"lo1":-89.0895,"lo2":-89.0444,"dy":0.0017,"dx":0.0017,"nx":28,"ny":28,"refTime":"2025-04-23T03:00:00:Z","depth":0,"parameterNumber":2,"parameterNumberName":"U-component_of_WINDS"},"data":[0,0,0,0,0,0,0,0,0,0,0,0,0,0,0,0,0,0,0,0,0,0,0,0,0,0,0,0,0,0,0,0,0,0,0,0,0,0,0,0,0,0,0,0,0,0,0,0,0,0,0,0,0,0,0,0,0,0,-2.3343,-2.3343,0,-2.3386,-2.3386,-2.3387,-2.3371,-2.337,-2.3369,-2.3368,-2.3412,-2.3414,-2.3416,0,0,0,0,0,0,0,0,0,0,0,0,0,-2.3247,-2.3249,-2.3343,-2.3343,-2.3344,-2.3386,-2.3386,-2.3387,-2.3371,-2.337,-2.3369,-2.3368,-2.3411,-2.3413,-2.3416,0,0,0,0,0,0,0,0,0,0,0,0,0,-2.3289,-2.325,-2.3343,-2.3341,-2.3341,-2.3386,-2.3386,-2.3387,-2.3371,-2.337,-2.3368,-2.3367,-2.341,-2.3413,-2.3416,-2.3465,0,0,-2.3426,-2.3427,0,0,0,0,0,0,0,0,-2.3287,-2.3293,-2.3341,-2.3341,-2.3342,-2.3372,-2.3369,-2.3413,-2.3372,-2.336,-2.3368,-2.3366,-2.3399,-2.3403,-2.3415,-2.3467,-2.3469,-2.3426,-2.3428,-2.3429,-2.343,0,0,0,0,0,0,0,-2.3284,-2.3291,-2.336,-2.3341,-2.3342,-2.3338,-2.3343,-2.3377,-2.3387,-2.3361,-2.336,-2.3365,-2.3399,-2.3412,-2.3415,-2.3469,-2.3426,-2.3429,-2.343,-2.3432,-2.3564,-2.3566,0,0,0,0,0,0,-2.3281,-2.3289,-2.3358,-2.3361,-2.331,-2.3341,-2.3346,-2.3363,-2.3387,-2.3389,-2.3366,-2.3364,-2.3407,-2.3412,-2.3417,-2.3475,-2.3429,-2.3432,-2.3434,-2.3562,-2.3564,-2.3566,0,0,0,0,0,0,-2.3279,-2.3287,-2.3357,-2.3325,-2.3333,-2.3344,-2.3364,-2.3365,-2.3377,-2.3391,-2.3393,-2.3377,-2.3406,-2.3413,-2.3453,-2.3476,-2.3433,-2.3436,-2.356,-2.3563,-2.3565,-2.3591,0,0,0,0,0,0,-2.3276,-2.3287,-2.3305,-2.3325,-2.3335,-2.3392,-2.3365,-2.3367,-2.3383,-2.338,-2.3401,-2.3403,-2.3405,-2.3449,-2.3456,-2.348,-2.3439,-2.3558,-2.3561,-2.3564,-2.3588,-2.3594,-2.36,0,0,0,0,0,-2.3273,-2.331,-2.3306,-2.3314,-2.3358,-2.3393,-2.3399,-2.34,-2.3385,-2.3403,-2.3412,-2.3403,-2.3473,-2.3453,-2.3461,-2.3486,-2.3557,-2.3561,-2.3564,-2.3586,-2.3593,-2.3599,0,0,0,0,0,0,-2.3292,-2.3313,-2.3308,-2.3353,-2.3372,-2.339,-2.3413,-2.3408,-2.3431,-2.3428,-2.3429,-2.3434,-2.3475,-2.3485,-2.3462,-2.3535,-2.3513,-2.3518,-2.3526,-2.3533,-2.3539,-2.3535,-2.3441,0,0,0,0,0,-2.3301,-2.3328,-2.3345,-2.3383,-2.3393,-2.3402,-2.3417,-2.3417,-2.3436,-2.3444,-2.3456,-2.3475,-2.3501,-2.3518,-2.3543,-2.3591,-2.3595,-2.3612,-2.3618,-2.3622,-2.3626,-2.3653,-2.366,-2.3578,-2.3578,-2.3578,0,0,-2.3321,-2.3336,-2.3352,-2.3388,-2.3402,-2.343,-2.3408,-2.3439,-2.3459,-2.3448,-2.3487,-2.3497,-2.3518,-2.3562,-2.3583,-2.3572,-2.3651,-2.3627,-2.3631,-2.3632,-2.3657,-2.3665,-2.3672,-2.3581,-2.358,-2.358,0,0,-2.337,-2.3385,-2.3418,-2.3433,-2.3455,-2.3461,-2.347,-2.349,-2.3496,-2.3535,-2.3528,-2.3553,-2.3598,-2.3613,-2.3627,-2.3685,-2.3677,-2.3694,-2.3722,-2.3747,-2.3754,-2.3759,-2.3779,-2.3786,-2.3698,-2.3698,-2.3698,0,-2.3391,-2.3433,-2.3436,-2.3467,-2.3482,-2.3475,-2.3509,-2.3523,-2.3553,-2.3564,-2.3552,-2.3609,-2.3623,-2.3671,-2.3685,-2.3697,-2.3706,-2.369,-2.3753,-2.3758,-2.3764,-2.3782,-2.379,-2.37,-2.37,-2.37,-2.3699,0,-2.3458,-2.3487,-2.3511,-2.354,-2.3559,-2.3591,-2.3599,-2.3618,-2.3617,-2.3624,-2.3665,-2.3682,-2.371,-2.3722,-2.3721,-2.377,-2.3763,-2.3752,-2.3729,-2.3773,-2.3791,-2.3798,-2.3702,-2.3702,-2.3701,-2.3701,0,0,-2.3517,-2.3549,-2.3557,-2.357,-2.3596,-2.3618,-2.3651,-2.3679,-2.3695,-2.3717,-2.3743,-2.3783,-2.3774,-2.3789,-2.3791,-2.3813,-2.3858,-2.38,-2.38,-2.3809,-2.3912,-2.3919,-2.3927,-2.3854,-2.3855,-2.3856,-2.391,0,-2.3567,-2.3624,-2.3629,-2.368,-2.3707,-2.3702,-2.373,-2.3749,-2.3757,-2.3782,-2.3792,-2.3819,-2.3805,-2.3815,-2.3837,-2.3847,-2.3878,-2.3844,-2.3878,-2.3879,-2.3871,-2.3937,-2.3943,-2.3993,-2.3917,-2.3918,-2.3919,0,-2.3633,-2.3656,-2.371,-2.3733,-2.3744,-2.3769,-2.3796,-2.382,-2.3842,-2.3846,-2.3865,-2.3864,-2.3898,-2.3876,-2.3923,-2.39,-2.3914,-2.3922,-2.3924,-2.3925,-2.39,-2.3938,-2.4009,-2.4016,-2.393,-2.3929,-2.3929,0,-2.3669,-2.3715,-2.3753,-2.3765,-2.3792,-2.381,-2.3822,-2.3842,-2.386,-2.3884,-2.3895,-2.3922,-2.3937,-2.3959,-2.3965,-2.3949,-2.4012,-2.399,-2.4016,-2.4016,-2.4027,-2.4026,-2.41,-2.404,-2.404,-2.404,-2.404,0,-2.3724,-2.3757,-2.377,-2.3793,-2.383,-2.3836,-2.3873,-2.3884,-2.3902,-2.3928,-2.3926,-2.395,-2.3958,-2.3984,-2.399,-2.4027,-2.4034,-2.4039,-2.404,-2.4038,-2.4037,-2.4046,-2.4042,-2.4042,-2.4041,-2.4041,-2.4041,0,-2.377,-2.378,-2.3821,-2.3844,-2.3851,-2.3877,-2.3897,-2.3919,-2.3929,-2.3961,-2.3969,-2.3984,-2.4014,-2.4024,-2.406,-2.4064,-2.4108,-2.4106,-2.41,-2.41,-2.4124,-2.4121,-2.4204,-2.4215,-2.415,-2.4151,-2.4151,0,-2.3803,-2.3828,-2.3854,-2.3871,-2.3884,-2.3912,-2.393,-2.3937,-2.3956,-2.3983,-2.4003,-2.4033,-2.4057,-2.4106,-2.412,-2.4148,-2.4146,-2.4174,-2.415,-2.4148,-2.4145,-2.4143,-2.4145,-2.4177,-2.4178,-2.4179,-2.4179,0,-2.386,-2.3864,-2.3889,-2.3918,-2.3939,-2.3961,-2.3983,-2.3997,-2.4008,-2.4029,-2.406,-2.4079,-2.4117,-2.4147,-2.4176,-2.4189,-2.4186,-2.4187,-2.4194,-2.4191,-2.4186,-2.4188,-2.411,-2.4184,-2.4184,-2.4183,-2.4183,-2.4183,-2.3899,-2.3921,-2.3944,-2.3972,-2.399,-2.401,-2.4033,-2.4046,-2.4072,-2.4103,-2.4107,-2.414,-2.4163,-2.4202,-2.4216,-2.4243,-2.4235,-2.4246,-2.4248,-2.425,-2.4251,-2.4184,-2.4249,-2.4248,-2.4248,-2.4248,-2.4248,0,-2.3955,-2.397,-2.3996,-2.4027,-2.405,-2.4046,-2.407,-2.4089,-2.4119,-2.4141,-2.4165,-2.4201,-2.4231,-2.4248,-2.4278,-2.4296,-2.4295,-2.4304,-2.4301,-2.4304,-2.4257,-2.4247,-2.4304,-2.4304,-2.4304,-2.4304,-2.4304,-2.4304,-2.3987,-2.4024,-2.4031,-2.4078,-2.4092,-2.4125,-2.4139,-2.4158,-2.4176,-2.4216,-2.4241,-2.4252,-2.4272,-2.4304,-2.4331,-2.4336,-2.4346,-2.4355,-2.4358,-2.4313,-2.4308,-2.4302,-2.4293,-2.4357,-2.4357,-2.4403,-2.4403,-2.4403]},{"header":{"parameterUnit":"m.s-1","parameterCategory":1,"la1":30.2991,"la2":30.254,"lo1":-89.0895,"lo2":-89.0444,"dy":0.0017,"dx":0.0017,"nx":28,"ny":28,"refTime":"2025-04-23T03:00:00:Z","depth":0,"parameterNumber":3,"parameterNumberName":"V-component_of_WINDS"},"data":[0,0,0,0,0,0,0,0,0,0,0,0,0,0,0,0,0,0,0,0,0,0,0,0,0,0,0,0,0,0,0,0,0,0,0,0,0,0,0,0,0,0,0,0,0,0,0,0,0,0,0,0,0,0,0,0,0,0,3.4432,3.4432,0,3.4482,3.4483,3.4484,3.455,3.4551,3.4552,3.4553,3.46,3.46,3.4601,0,0,0,0,0,0,0,0,0,0,0,0,0,3.4389,3.439,3.4432,3.4432,3.4433,3.4482,3.4483,3.4484,3.455,3.4551,3.4553,3.4554,3.46,3.46,3.4601,0,0,0,0,0,0,0,0,0,0,0,0,0,3.442,3.439,3.4432,3.4472,3.4476,3.4482,3.4483,3.4484,3.455,3.4551,3.4553,3.4555,3.46,3.46,3.4601,3.4569,0,0,3.4602,3.4602,0,0,0,0,0,0,0,0,3.4419,3.4422,3.4466,3.4469,3.4474,3.4512,3.4485,3.4512,3.4549,3.4522,3.4553,3.4555,3.4569,3.4572,3.4578,3.4572,3.4574,3.4602,3.4602,3.4602,3.4602,0,0,0,0,0,0,0,3.4416,3.442,3.4452,3.4466,3.4471,3.4487,3.4493,3.4491,3.4535,3.4524,3.4529,3.4534,3.4572,3.4577,3.4579,3.4574,3.4602,3.4602,3.4602,3.4602,3.4546,3.4545,0,0,0,0,0,0,3.4409,3.4418,3.445,3.4453,3.445,3.4486,3.4493,3.4498,3.4535,3.4543,3.4533,3.4537,3.4576,3.4579,3.4581,3.4548,3.4602,3.4602,3.4602,3.4548,3.4546,3.4544,0,0,0,0,0,0,3.4408,3.4411,3.4448,3.4437,3.4443,3.4485,3.449,3.4498,3.4504,3.4542,3.455,3.4531,3.4577,3.4581,3.4573,3.455,3.4602,3.4603,3.455,3.4548,3.4545,3.448,0,0,0,0,0,0,3.4406,3.441,3.4399,3.4436,3.4443,3.4439,3.4489,3.4498,3.4505,3.4511,3.4542,3.4549,3.4579,3.4572,3.4573,3.4552,3.4603,3.4552,3.4549,3.4546,3.4485,3.4476,3.4468,0,0,0,0,0,3.4404,3.4377,3.4398,3.4402,3.4431,3.4438,3.4442,3.4478,3.4503,3.4492,3.4517,3.4548,3.4553,3.457,3.4572,3.4551,3.4554,3.455,3.4546,3.4488,3.4478,3.4469,0,0,0,0,0,0,3.4334,3.4383,3.4407,3.4391,3.441,3.4449,3.4436,3.4465,3.4476,3.4481,3.4525,3.4531,3.4518,3.4534,3.4552,3.4523,3.4558,3.4554,3.4513,3.4504,3.4496,3.4492,3.4603,0,0,0,0,0,3.4317,3.432,3.4362,3.4344,3.4353,3.4393,3.4397,3.4424,3.4445,3.4452,3.4477,3.4494,3.4501,3.4503,3.451,3.4488,3.4496,3.4474,3.4466,3.4459,3.4455,3.4445,3.4436,3.4532,3.4532,3.4532,0,0,3.4282,3.4309,3.4307,3.4331,3.4349,3.435,3.4399,3.4398,3.4399,3.4452,3.4446,3.4465,3.4487,3.4472,3.4467,3.4485,3.4431,3.4454,3.4449,3.4449,3.4441,3.4432,3.4423,3.4529,3.453,3.453,0,0,3.4217,3.4238,3.4227,3.4244,3.4272,3.4299,3.4296,3.4331,3.4346,3.4342,3.4382,3.4383,3.4392,3.4407,3.4416,3.436,3.4389,3.4361,3.4318,3.4308,3.4301,3.4294,3.4275,3.4267,3.4357,3.4357,3.4357,0,3.4169,3.4174,3.4216,3.4214,3.4223,3.4274,3.4262,3.4276,3.4303,3.4308,3.4329,3.4343,3.4361,3.4351,3.4338,3.4343,3.4341,3.4357,3.4299,3.4293,3.4287,3.4269,3.4261,3.4354,3.4354,3.4354,3.4355,0,3.4114,3.4116,3.4103,3.4131,3.4139,3.4132,3.4172,3.4175,3.4202,3.4227,3.4222,3.4247,3.426,3.426,3.4285,3.4253,3.4264,3.4291,3.4327,3.4274,3.4257,3.4251,3.4348,3.435,3.4351,3.4352,0,0,3.4004,3.4058,3.4052,3.4066,3.4101,3.4104,3.4099,3.4115,3.4117,3.4134,3.4131,3.4139,3.4165,3.4174,3.4202,3.4193,3.4148,3.4222,3.4223,3.4207,3.4115,3.4094,3.4085,3.4168,3.4167,3.4166,3.4113,0,3.3946,3.3942,3.3981,3.3966,3.397,3.4019,3.4015,3.4036,3.4059,3.4065,3.409,3.4095,3.4129,3.4135,3.4129,3.4155,3.413,3.4159,3.4164,3.4164,3.4157,3.4077,3.4054,3.4003,3.4107,3.4106,3.4105,0,3.3878,3.3894,3.388,3.3918,3.3921,3.3917,3.3935,3.394,3.3965,3.3982,3.3995,3.4027,3.4024,3.4059,3.4056,3.4075,3.408,3.4093,3.4092,3.4093,3.4131,3.4075,3.3987,3.3979,3.4095,3.4096,3.4097,0,3.38,3.3818,3.3813,3.3823,3.3867,3.3863,3.3881,3.3907,3.3915,3.3931,3.3936,3.395,3.3958,3.3968,3.4003,3.4026,3.3996,3.4034,3.401,3.4009,3.4,3.4,3.3911,3.4004,3.4004,3.4004,3.4004,0,3.373,3.372,3.3779,3.3775,3.3765,3.381,3.3798,3.3821,3.3845,3.3846,3.3889,3.3889,3.3936,3.3941,3.3968,3.3961,3.3964,3.3978,3.3985,3.3974,3.3972,3.3977,3.3981,3.4002,3.4003,3.4003,3.4003,0,3.3641,3.368,3.3677,3.372,3.3731,3.3721,3.3757,3.3755,3.3783,3.3784,3.3787,3.3829,3.3837,3.3874,3.389,3.3909,3.3892,3.3907,3.3884,3.3889,3.3863,3.3865,3.3774,3.3764,3.3863,3.3862,3.3861,0,3.3593,3.3587,3.363,3.3635,3.3652,3.3659,3.3668,3.3712,3.3719,3.3748,3.3743,3.3755,3.3767,3.3778,3.3809,3.3822,3.3837,3.3805,3.3839,3.3829,3.3837,3.3836,3.3836,3.3797,3.3795,3.3794,3.3793,0,3.3506,3.3526,3.3538,3.3557,3.3567,3.3584,3.3603,3.3604,3.3654,3.366,3.367,3.368,3.3698,3.371,3.3728,3.3746,3.3777,3.3783,3.3778,3.3766,3.3753,3.3759,3.3864,3.3784,3.3785,3.3786,3.3786,3.3787,3.3436,3.3433,3.3464,3.3476,3.3496,3.3513,3.3514,3.3543,3.3553,3.3573,3.3598,3.3605,3.3631,3.366,3.3675,3.3681,3.3699,3.3691,3.369,3.3687,3.3681,3.3753,3.3684,3.3685,3.3685,3.3685,3.3685,0,3.3351,3.3373,3.3385,3.3411,3.3421,3.3453,3.3476,3.3482,3.3488,3.3511,3.3523,3.3535,3.3547,3.3581,3.3596,3.3594,3.3609,3.3596,3.3596,3.36,3.3664,3.3667,3.3584,3.3584,3.3584,3.3584,3.3584,3.3584,3.3307,3.3304,3.3329,3.3336,3.3359,3.3368,3.3379,3.3395,3.3414,3.3426,3.3437,3.346,3.3487,3.3505,3.3517,3.3526,3.3529,3.3512,3.3526,3.3585,3.3595,3.3604,3.3607,3.3512,3.3512,3.3461,3.346,3.346]}]]